[[{"header":{"parameterUnit":"m.s-1","parameterCategory":1,"la1":30.2991,"la2":30.254,"lo1":-89.0895,"lo2":-89.0444,"dy":0.0017,"dx":0.0017,"nx":28,"ny":28,"refTime":"2025-06-03T09:00:00:Z","depth":0,"parameterNumber":2,"parameterNumberName":"U-component_of_WINDS"},"data":[0,0,0,0,0,0,0,0,0,0,0,0,0,0,0,0,0,0,0,0,0,0,0,0,0,0,0,0,0,0,0,0,0,0,0,0,0,0,0,0,0,0,0,0,0,0,0,0,0,0,0,0,0,0,0,0,0,0,-6.6619,-6.662,0,-6.668,-6.6681,-6.6682,-6.6589,-6.6586,-6.6583,-6.6579,-6.6639,-6.6643,-6.6648,0,0,0,0,0,0,0,0,0,0,0,0,0,-6.642,-6.6424,-6.6619,-6.662,-6.6621,-6.668,-6.6681,-6.6682,-6.659,-6.6586,-6.6582,-6.6578,-6.6637,-6.6643,-6.6648,0,0,0,0,0,0,0,0,0,0,0,0,0,-6.6496,-6.6425,-6.6619,-6.6582,-6.6579,-6.668,-6.6681,-6.6682,-6.659,-6.6586,-6.6581,-6.6576,-6.6636,-6.6642,-6.6649,-6.6788,0,0,-6.667,-6.6673,0,0,0,0,0,0,0,0,-6.6492,-6.6504,-6.6587,-6.6585,-6.6582,-6.6622,-6.6632,-6.6718,-6.6592,-6.6586,-6.6579,-6.6574,-6.6637,-6.6643,-6.6665,-6.6791,-6.6793,-6.6671,-6.6675,-6.6678,-6.668,0,0,0,0,0,0,0,-6.6487,-6.65,-6.6643,-6.6588,-6.6585,-6.6561,-6.6567,-6.6648,-6.6638,-6.6586,-6.658,-6.6588,-6.6635,-6.6659,-6.6666,-6.6794,-6.667,-6.6676,-6.6681,-6.6683,-6.7035,-6.704,0,0,0,0,0,0,-6.6486,-6.6497,-6.6641,-6.6645,-6.6524,-6.6569,-6.6575,-6.6614,-6.6637,-6.6636,-6.6592,-6.6584,-6.665,-6.6658,-6.6668,-6.683,-6.6678,-6.6684,-6.6688,-6.703,-6.7036,-6.7042,0,0,0,0,0,0,-6.6482,-6.65,-6.6639,-6.6569,-6.6585,-6.6577,-6.6622,-6.6618,-6.6642,-6.6641,-6.6639,-6.6619,-6.6646,-6.6658,-6.6759,-6.6831,-6.6687,-6.6693,-6.7024,-6.7032,-6.7039,-6.7157,0,0,0,0,0,0,-6.6477,-6.6499,-6.6553,-6.6571,-6.6589,-6.673,-6.6627,-6.6623,-6.6654,-6.6644,-6.6666,-6.6665,-6.6643,-6.6749,-6.6766,-6.6837,-6.6699,-6.7017,-6.7027,-6.7037,-6.7146,-6.7167,-6.7186,0,0,0,0,0,-6.647,-6.6583,-6.6556,-6.6574,-6.6656,-6.6734,-6.6744,-6.6718,-6.6661,-6.6713,-6.6713,-6.6664,-6.6821,-6.676,-6.6778,-6.6853,-6.7013,-6.7025,-6.7036,-6.7137,-6.7163,-6.7185,0,0,0,0,0,0,-6.6571,-6.6585,-6.6555,-6.6677,-6.6705,-6.6718,-6.6784,-6.6747,-6.6791,-6.6779,-6.6744,-6.675,-6.6857,-6.6866,-6.6797,-6.6988,-6.6907,-6.6923,-6.6978,-6.7003,-6.7022,-6.7016,-6.6705,0,0,0,0,0,-6.6609,-6.6672,-6.668,-6.6787,-6.6803,-6.6792,-6.6825,-6.6803,-6.683,-6.6841,-6.6848,-6.6876,-6.6931,-6.6968,-6.7019,-6.7149,-6.715,-6.7209,-6.7229,-6.7245,-6.7258,-6.7325,-6.735,-6.7081,-6.7081,-6.708,0,0,-6.6684,-6.67,-6.6741,-6.6808,-6.6827,-6.6892,-6.6802,-6.6875,-6.6922,-6.6852,-6.6946,-6.6953,-6.6982,-6.7097,-6.7148,-6.7107,-6.7334,-6.726,-6.7273,-6.7277,-6.7339,-6.7365,-6.7387,-6.7089,-6.7087,-6.7086,0,0,-6.6855,-6.6875,-6.6964,-6.6986,-6.7017,-6.701,-6.7032,-6.7051,-6.7053,-6.7148,-6.7096,-6.7152,-6.7249,-6.7271,-6.7294,-6.7476,-6.7431,-6.7494,-6.7595,-6.7661,-6.7682,-6.7701,-6.7762,-6.7785,-6.7508,-6.7508,-6.7508,0,-6.6945,-6.7042,-6.7015,-6.7092,-6.7122,-6.7063,-6.7153,-6.7175,-6.7221,-6.7242,-6.7197,-6.7317,-6.7332,-6.745,-6.7495,-6.7518,-6.754,-6.7489,-6.7682,-6.77,-6.7717,-6.7775,-6.7798,-6.7515,-6.7514,-6.7514,-6.7513,0,-6.7149,-6.7218,-6.7287,-6.7333,-6.7371,-6.7455,-6.7439,-6.7481,-6.7457,-6.7453,-6.755,-6.7568,-6.762,-6.7648,-6.7624,-6.7763,-6.7736,-6.7688,-6.7604,-6.775,-6.7804,-6.7826,-6.7525,-6.7523,-6.7521,-6.7519,0,0,-6.7381,-6.7414,-6.7439,-6.7459,-6.749,-6.7542,-6.7623,-6.7675,-6.771,-6.7745,-6.781,-6.7894,-6.7849,-6.7877,-6.7855,-6.7914,-6.8053,-6.7857,-6.7857,-6.789,-6.8203,-6.8237,-6.8263,-6.8026,-6.803,-6.8033,-6.8199,0,-6.7548,-6.7687,-6.7667,-6.78,-6.7862,-6.7808,-6.7878,-6.7904,-6.7904,-6.7956,-6.7955,-6.8014,-6.7952,-6.7968,-6.8024,-6.8024,-6.8114,-6.8013,-6.8082,-6.8085,-6.8072,-6.8292,-6.8327,-6.8483,-6.8221,-6.8224,-6.8227,0,-6.7761,-6.7804,-6.7944,-6.7965,-6.799,-6.8053,-6.8099,-6.8151,-6.8179,-6.8175,-6.8207,-6.8175,-6.8254,-6.8174,-6.8281,-6.8212,-6.8241,-6.8246,-6.8251,-6.8252,-6.8162,-6.8295,-6.8532,-6.8554,-6.8261,-6.8258,-6.8255,0,-6.7911,-6.8005,-6.81,-6.812,-6.8148,-6.8193,-6.8207,-6.8231,-6.8264,-6.8305,-6.8325,-6.8375,-6.8401,-6.844,-6.8422,-6.8366,-6.8532,-6.8451,-6.8528,-6.8529,-6.8561,-6.8559,-6.8802,-6.8588,-6.8587,-6.8587,-6.8586,0,-6.8098,-6.8184,-6.8168,-6.8226,-6.8322,-6.8298,-6.8393,-6.84,-6.8422,-6.8479,-6.8438,-6.8493,-6.8468,-6.8521,-6.8509,-6.8598,-6.8611,-6.8608,-6.8602,-6.8609,-6.8609,-6.8623,-6.861,-6.8593,-6.8592,-6.859,-6.8589,0,-6.8279,-6.8273,-6.8372,-6.8392,-6.8399,-6.8468,-6.8483,-6.8537,-6.8535,-6.8609,-6.8625,-6.8621,-6.8681,-6.8669,-6.8735,-6.8727,-6.8837,-6.8821,-6.8827,-6.8822,-6.8898,-6.889,-6.9156,-6.9188,-6.8957,-6.8959,-6.8961,0,-6.8396,-6.8462,-6.8489,-6.8525,-6.8542,-6.8601,-6.8635,-6.8615,-6.8651,-6.869,-6.8738,-6.8796,-6.8839,-6.8938,-6.894,-6.8991,-6.8972,-6.9062,-6.8979,-6.8983,-6.8969,-6.8963,-6.8968,-6.9077,-6.908,-6.9082,-6.9084,0,-6.8603,-6.8597,-6.8648,-6.8698,-6.874,-6.8778,-6.8812,-6.8844,-6.8826,-6.887,-6.8931,-6.8966,-6.9034,-6.909,-6.9137,-6.915,-6.9113,-6.9111,-6.913,-6.9135,-6.9135,-6.9132,-6.8868,-6.9103,-6.9101,-6.91,-6.9099,-6.9098,-6.8753,-6.8808,-6.8836,-6.8893,-6.8918,-6.8951,-6.9002,-6.9007,-6.9058,-6.9112,-6.9098,-6.9168,-6.9195,-6.9254,-6.9273,-6.9326,-6.9292,-6.9322,-6.9328,-6.9335,-6.9342,-6.9131,-6.9335,-6.9334,-6.9334,-6.9333,-6.9333,0,-6.8954,-6.897,-6.9024,-6.9073,-6.9118,-6.9084,-6.912,-6.9159,-6.9221,-6.925,-6.9295,-6.9365,-6.942,-6.9428,-6.9479,-6.952,-6.9505,-6.9534,-6.9528,-6.9531,-6.9371,-6.9347,-6.9546,-6.9546,-6.9546,-6.9546,-6.9546,-6.9546,-6.9064,-6.9154,-6.9152,-6.9254,-6.9268,-6.9337,-6.936,-6.939,-6.9413,-6.9493,-6.9539,-6.9545,-6.9565,-6.9618,-6.9666,-6.9667,-6.9686,-6.9721,-6.9715,-6.9564,-6.9543,-6.9522,-6.9499,-6.9726,-6.9727,-6.987,-6.9871,-6.9872]},{"header":{"parameterUnit":"m.s-1","parameterCategory":1,"la1":30.2991,"la2":30.254,"lo1":-89.0895,"lo2":-89.0444,"dy":0.0017,"dx":0.0017,"nx":28,"ny":28,"refTime":"2025-06-03T09:00:00:Z","depth":0,"parameterNumber":3,"parameterNumberName":"V-component_of_WINDS"},"data":[0,0,0,0,0,0,0,0,0,0,0,0,0,0,0,0,0,0,0,0,0,0,0,0,0,0,0,0,0,0,0,0,0,0,0,0,0,0,0,0,0,0,0,0,0,0,0,0,0,0,0,0,0,0,0,0,0,0,1.6719,1.672,0,1.6832,1.6833,1.6835,1.6899,1.6899,1.69,1.69,1.7014,1.7017,1.7019,0,0,0,0,0,0,0,0,0,0,0,0,0,1.6558,1.6561,1.6719,1.672,1.6722,1.6832,1.6833,1.6835,1.6899,1.6899,1.69,1.69,1.7013,1.7016,1.702,0,0,0,0,0,0,0,0,0,0,0,0,0,1.6645,1.6562,1.6718,1.6767,1.6772,1.6831,1.6833,1.6835,1.6899,1.6899,1.69,1.69,1.7012,1.7016,1.702,1.7039,0,0,1.7033,1.7035,0,0,0,0,0,0,0,0,1.664,1.6651,1.6758,1.6764,1.677,1.6852,1.6819,1.6904,1.6899,1.6851,1.69,1.69,1.696,1.6968,1.6989,1.7045,1.7049,1.7033,1.7036,1.7038,1.7039,0,0,0,0,0,0,0,1.6634,1.6646,1.6764,1.676,1.6767,1.6783,1.6796,1.6835,1.6902,1.6855,1.686,1.6873,1.6963,1.6984,1.6992,1.7051,1.7033,1.7037,1.704,1.7041,1.7131,1.7131,0,0,0,0,0,0,1.662,1.6641,1.676,1.6767,1.6705,1.6786,1.68,1.6825,1.6902,1.6914,1.6872,1.6875,1.6977,1.6987,1.6996,1.7025,1.7038,1.7042,1.7044,1.7131,1.7131,1.7131,0,0,0,0,0,0,1.6617,1.663,1.6755,1.6705,1.6723,1.6788,1.6816,1.6827,1.6849,1.6915,1.6927,1.6882,1.6978,1.699,1.7029,1.703,1.7044,1.7047,1.7131,1.7131,1.7131,1.7081,0,0,0,0,0,0,1.6612,1.6629,1.6636,1.6705,1.6725,1.6786,1.6816,1.6829,1.6856,1.6861,1.6927,1.6938,1.6979,1.7022,1.7033,1.7036,1.7051,1.7131,1.7131,1.7131,1.7083,1.7079,1.7076,0,0,0,0,0,1.6606,1.6617,1.6636,1.665,1.6736,1.6786,1.6797,1.6844,1.6856,1.6865,1.6907,1.6936,1.7028,1.7025,1.7038,1.7042,1.7131,1.7131,1.7131,1.7085,1.708,1.7076,0,0,0,0,0,0,1.6546,1.6627,1.6649,1.6683,1.6727,1.6797,1.6809,1.6838,1.6879,1.6882,1.6938,1.6952,1.6986,1.7018,1.7014,1.7066,1.7083,1.7085,1.7043,1.704,1.7036,1.7028,1.7054,0,0,0,0,0,1.6537,1.6571,1.664,1.6663,1.6684,1.6742,1.6766,1.6799,1.6846,1.6865,1.691,1.6955,1.6994,1.7019,1.7058,1.7088,1.7104,1.7098,1.7094,1.7091,1.7092,1.7112,1.711,1.7129,1.7129,1.7129,0,0,1.6518,1.6566,1.6584,1.6652,1.669,1.6724,1.6758,1.6792,1.6818,1.687,1.691,1.6945,1.6998,1.7033,1.7051,1.7061,1.7091,1.709,1.7087,1.7091,1.7112,1.711,1.7108,1.7129,1.7129,1.7129,0,0,1.6501,1.6541,1.6566,1.6603,1.6661,1.67,1.6706,1.6772,1.6797,1.6838,1.6879,1.691,1.6976,1.7014,1.7041,1.7041,1.7069,1.7052,1.7034,1.7053,1.7051,1.705,1.7051,1.7051,1.7053,1.7053,1.7053,0,1.647,1.6523,1.6574,1.6607,1.6636,1.6686,1.6712,1.6746,1.6813,1.6832,1.6843,1.6928,1.6968,1.7013,1.7013,1.7033,1.7043,1.7045,1.7047,1.7047,1.7047,1.7048,1.7048,1.705,1.7051,1.7051,1.7051,0,1.6483,1.652,1.6533,1.6598,1.6628,1.6657,1.6713,1.6738,1.6768,1.6806,1.6848,1.6898,1.6949,1.6962,1.6992,1.7012,1.7017,1.7037,1.7055,1.7042,1.7044,1.7045,1.7047,1.7048,1.7048,1.7049,0,0,1.6431,1.6525,1.6529,1.656,1.6628,1.6657,1.6689,1.674,1.6761,1.6806,1.6834,1.689,1.6909,1.6941,1.6975,1.6991,1.699,1.701,1.7012,1.7005,1.7017,1.7002,1.7002,1.7009,1.7009,1.701,1.7013,0,1.6425,1.6484,1.6532,1.6574,1.6609,1.6658,1.6686,1.6731,1.6768,1.6803,1.6843,1.6882,1.6904,1.6924,1.6942,1.6986,1.6993,1.6986,1.7037,1.7038,1.7022,1.7003,1.6987,1.6987,1.7014,1.7014,1.7014,0,1.6425,1.647,1.6515,1.6582,1.6598,1.6622,1.6674,1.6707,1.6759,1.6785,1.6821,1.6857,1.6893,1.6908,1.6959,1.6954,1.6977,1.7002,1.7003,1.701,1.7025,1.701,1.6988,1.6989,1.7016,1.7016,1.7016,0,1.6384,1.6455,1.6492,1.6517,1.6595,1.6611,1.6644,1.6697,1.6725,1.677,1.679,1.6838,1.6864,1.6901,1.695,1.6956,1.6996,1.7015,1.7019,1.7018,1.7026,1.7024,1.7008,1.7039,1.7039,1.7039,1.7039,0,1.6372,1.6398,1.6475,1.6498,1.6529,1.6584,1.6613,1.6651,1.6698,1.6729,1.6774,1.6802,1.6864,1.69,1.6938,1.6976,1.6987,1.7009,1.7019,1.7006,1.7003,1.7022,1.7024,1.704,1.704,1.704,1.704,0,1.6331,1.6383,1.6427,1.6498,1.6516,1.6536,1.6597,1.6622,1.6661,1.6701,1.6713,1.6775,1.682,1.6873,1.6934,1.696,1.6995,1.7009,1.6977,1.6983,1.6985,1.6984,1.6981,1.6984,1.7012,1.7011,1.7011,0,1.632,1.6342,1.6416,1.644,1.6473,1.6511,1.6541,1.6596,1.6625,1.6688,1.6705,1.6753,1.6795,1.6865,1.6916,1.6963,1.698,1.6975,1.6987,1.6973,1.6981,1.6979,1.6982,1.6972,1.6971,1.6971,1.697,0,1.6296,1.6322,1.6363,1.6414,1.6448,1.6491,1.6535,1.6552,1.6617,1.6647,1.6694,1.6727,1.6791,1.6839,1.6893,1.6928,1.696,1.6966,1.697,1.6957,1.6938,1.6949,1.6969,1.6966,1.6967,1.6967,1.6967,1.6967,1.6271,1.6293,1.6349,1.6394,1.6433,1.6474,1.6501,1.6545,1.6586,1.6643,1.6673,1.6719,1.6773,1.685,1.6884,1.6921,1.6932,1.6937,1.6939,1.6939,1.6936,1.6932,1.6931,1.6931,1.6932,1.6932,1.6932,0,1.625,1.6289,1.633,1.6391,1.6427,1.6455,1.6506,1.6534,1.6575,1.6622,1.6663,1.6718,1.6765,1.6821,1.6872,1.6891,1.6908,1.6903,1.6902,1.691,1.6923,1.6915,1.6889,1.6889,1.6889,1.6889,1.6889,1.6889,1.6244,1.6283,1.6315,1.6375,1.6414,1.6461,1.6488,1.6526,1.6565,1.6624,1.6664,1.67,1.6751,1.6807,1.6852,1.6867,1.6884,1.6875,1.6895,1.6905,1.6909,1.6912,1.6905,1.6878,1.6878,1.6879,1.6879,1.6879]}]]